Wind_Speed
73 75 75 72 70 70 68 67 67 67 67 67 67 68 66 65 63 61 62 67 70 68 63 57 53 50 45 43 43 43 41 41 39 35 34 34 37 42 44 44 41 43 44 41 37 34 31 28 27 25 23 22 23 25 26 26 24 22 24 24 25 28
74 73 71 65 62 64 62 62 61 60 62 64 66 65 61 60 60 62 65 67 65 60 54 47 44 42 39 39 38 35 36 37 35 33 34 36 40 42 42 42 42 46 45 39 35 32 28 25 25 24 23 22 22 24 26 26 24 23 23 23 25 27
75 72 66 59 57 58 58 60 60 61 63 63 60 58 59 62 62 62 61 62 59 55 51 43 39 36 32 34 34 33 36 36 36 37 39 39 39 39 42 45 45 46 41 35 32 28 23 22 23 23 22 22 22 23 25 25 25 24 22 22 24 26
72 68 61 58 60 62 61 61 61 61 58 56 57 59 63 63 62 59 56 58 57 55 54 50 47 40 33 35 38 37 37 36 38 39 39 38 36 40 47 46 44 41 35 29 25 22 20 20 22 22 21 21 21 22 24 25 26 25 22 21 24 26
70 66 60 60 61 60 58 57 56 56 54 56 60 61 60 58 58 56 54 53 54 55 55 53 49 44 39 38 39 37 37 37 37 37 38 38 39 47 50 41 36 31 26 22 20 18 19 20 21 21 21 21 21 22 23 26 27 26 23 22 23 25
69 65 63 60 57 54 52 52 51 51 53 55 57 58 57 57 57 55 53 51 51 53 55 52 49 48 45 42 38 36 36 37 38 39 41 42 45 52 49 36 29 25 21 19 18 17 18 18 19 20 21 21 21 21 23 26 28 27 24 22 22 24
68 66 65 62 57 52 50 48 48 48 50 51 51 54 57 56 53 51 50 48 47 50 52 51 50 51 50 46 41 37 38 39 41 43 45 49 53 55 46 34 27 23 21 18 18 18 17 17 17 17 18 19 19 20 21 24 27 27 24 23 23 25
69 66 61 57 54 52 53 54 53 49 48 48 49 52 54 50 46 45 44 43 44 46 48 48 50 52 51 47 44 42 41 42 44 47 51 55 57 55 44 33 28 25 23 20 18 18 18 18 18 18 17 17 18 19 19 21 24 24 23 24 25 26
65 62 57 54 56 59 61 60 58 52 46 45 48 48 44 40 39 42 43 40 41 42 45 48 50 51 49 45 47 47 45 45 47 51 55 56 57 55 43 34 31 28 27 25 21 20 21 21 20 19 17 16 17 17 19 21 22 23 24 25 25 26
58 60 60 61 64 65 64 58 51 48 45 45 44 41 40 39 41 44 44 43 43 44 44 45 44 43 41 42 47 51 50 49 51 53 53 55 57 53 41 36 34 29 29 28 25 24 24 24 22 20 18 16 15 15 19 22 22 23 25 26 25 26
51 55 57 60 62 61 58 50 43 44 47 49 47 46 47 48 48 46 46 46 46 45 42 41 40 37 36 37 42 47 49 51 52 50 49 53 56 50 39 38 36 30 28 27 27 25 25 25 23 22 19 15 13 15 18 22 24 25 24 26 27 27
51 53 55 57 57 54 50 45 43 45 48 50 52 52 51 50 49 49 49 49 44 42 43 42 42 40 37 36 39 44 46 47 46 46 49 55 55 49 42 39 36 31 27 26 26 25 24 24 23 21 19 17 14 15 18 20 24 26 25 27 30 31
53 55 56 56 54 50 48 44 43 48 50 51 52 52 51 51 51 52 51 49 46 44 44 44 42 40 38 38 42 43 43 43 46 52 59 60 58 54 45 39 37 31 26 25 25 25 24 22 20 16 15 18 18 18 19 20 25 28 29 31 32 32
57 58 57 56 55 53 52 46 43 49 52 51 51 51 51 52 55 54 51 49 49 48 46 45 44 41 39 41 45 45 47 52 58 66 68 63 58 51 42 37 36 31 26 24 23 24 23 21 19 14 12 16 20 22 19 20 26 29 30 31 32 31
62 61 59 58 58 57 54 48 43 47 50 50 53 54 55 56 58 58 54 53 53 52 50 47 46 46 45 46 48 51 55 63 69 72 67 59 52 44 38 36 33 28 24 23 23 23 20 17 17 14 11 15 20 23 22 22 24 27 29 31 32 32
63 62 61 61 60 58 53 48 46 49 52 53 54 55 56 57 56 57 57 56 54 54 53 50 49 50 50 52 54 58 63 67 68 65 59 52 46 40 37 36 32 27 22 21 21 19 17 15 16 15 13 17 22 23 25 26 27 28 29 31 31 31
63 63 63 61 59 57 53 48 47 50 53 53 53 53 53 53 52 51 52 53 53 53 53 52 52 52 54 57 59 61 63 62 58 54 52 47 42 39 37 38 36 31 25 21 20 17 17 14 15 19 17 19 20 19 21 26 29 30 30 30 31 32
61 62 61 59 57 56 53 49 48 49 51 51 51 50 49 49 48 46 46 48 50 51 51 53 55 57 59 60 59 57 55 52 50 49 47 44 41 39 38 39 39 36 31 27 23 19 17 13 13 18 19 20 20 19 22 25 27 29 30 31 32 34
59 59 57 56 54 53 51 49 49 49 50 50 48 46 46 45 44 44 43 45 48 50 54 57 59 59 58 57 54 52 49 47 46 45 43 41 39 38 37 38 39 37 35 31 27 23 21 17 17 19 22 23 22 21 23 25 26 27 27 29 31 33
55 55 53 51 50 49 48 47 47 48 49 49 47 44 44 44 43 44 46 48 52 55 58 59 58 57 55 53 51 48 46 45 43 42 41 39 37 36 35 35 35 34 33 31 28 26 25 23 21 22 24 25 23 24 26 27 27 27 27 28 31 33
50 49 47 46 46 46 46 46 46 47 47 46 46 44 44 45 47 49 51 53 55 56 57 56 55 53 52 50 48 46 44 42 41 40 39 38 38 37 34 35 34 31 29 30 28 27 28 29 26 25 26 27 26 27 27 27 26 26 28 30 32 34
44 44 42 42 43 43 42 43 44 46 47 46 47 47 47 49 51 53 54 55 55 55 55 54 52 50 48 46 44 43 41 40 40 39 38 38 41 39 35 36 37 34 31 31 31 30 30 32 32 31 31 32 33 32 29 29 29 29 29 29 29 32
39 40 40 41 41 40 39 40 41 44 47 48 51 52 52 53 53 54 56 56 56 56 55 52 49 47 45 43 42 40 39 38 39 39 39 40 43 43 38 37 39 39 35 32 32 33 33 35 36 37 37 38 38 37 34 32 33 32 31 30 31 33
38 37 37 38 38 37 36 34 35 39 43 46 51 54 54 54 55 56 57 57 58 57 54 49 46 44 43 42 40 38 38 38 38 39 40 42 45 46 44 42 43 43 41 37 34 34 35 37 38 39 39 39 39 37 35 34 34 34 32 31 32 34
33 34 33 33 32 33 32 28 29 35 38 41 45 49 51 52 53 55 55 56 56 53 49 46 45 44 42 41 39 38 37 37 38 38 39 42 45 47 47 44 44 45 45 44 40 36 36 38 38 38 37 38 39 39 38 37 36 36 35 33 32 35
33 32 30 30 30 29 28 28 31 33 35 38 41 42 45 46 49 52 53 53 52 50 48 46 45 43 42 41 39 38 37 36 37 38 39 41 44 48 49 47 45 46 48 49 46 41 39 40 40 39 38 37 38 39 39 38 37 37 38 37 36 38
38 33 30 28 27 26 26 27 30 31 33 36 39 40 40 43 48 51 51 51 50 50 48 46 44 42 42 40 38 37 37 36 35 37 39 40 41 46 51 53 51 49 49 50 50 48 45 43 42 41 40 40 39 40 40 40 39 38 38 39 37 37
40 35 31 28 27 27 27 28 31 34 35 37 39 39 42 46 49 49 47 47 47 46 44 42 41 39 38 38 37 36 36 36 35 35 38 40 41 42 46 52 55 55 54 53 53 53 51 49 47 43 41 41 43 44 44 44 42 41 41 40 37 36
38 36 33 31 30 28 29 31 33 36 37 37 39 41 45 48 47 44 42 41 41 40 39 38 37 36 35 35 36 35 35 35 35 35 37 39 41 42 42 45 50 53 55 56 56 56 54 53 52 51 48 47 47 47 46 46 45 44 45 43 39 38
39 37 35 34 30 28 32 33 31 32 34 37 41 44 46 46 43 40 38 37 36 36 36 35 35 34 33 34 34 35 34 33 34 34 35 37 40 42 43 43 45 47 50 52 54 54 54 54 53 54 54 53 51 50 48 45 44 44 44 44 43 41
44 40 38 37 32 30 34 35 31 29 31 32 35 37 41 42 40 36 33 31 32 33 33 33 32 32 31 31 32 32 32 32 32 33 34 35 37 40 43 44 45 46 47 49 50 51 53 54 54 55 56 56 55 53 50 47 45 44 44 45 46 44
49 45 43 42 38 35 37 37 33 29 28 27 26 28 31 32 33 30 27 26 27 29 30 29 29 28 28 28 28 29 29 29 29 29 30 32 34 36 39 41 44 45 47 48 50 51 52 54 55 56 56 57 57 54 51 49 46 44 43 44 45 46
52 49 46 45 43 41 41 40 37 33 30 27 27 28 27 27 28 27 26 26 26 26 26 26 26 25 25 25 25 25 26 26 26 26 26 27 28 30 32 35 37 40 43 45 47 49 50 52 53 54 54 54 54 53 51 49 46 43 42 42 44 46
55 54 52 49 48 46 45 44 43 41 37 34 35 33 31 30 31 30 30 29 27 26 24 24 24 23 23 23 23 23 24 25 24 24 24 25 25 25 27 28 29 32 34 36 38 41 43 45 46 48 49 50 50 50 49 48 46 45 44 43 43 45
53 57 57 54 52 52 51 50 48 46 45 43 42 39 35 33 33 33 32 31 30 29 27 25 24 23 23 23 23 23 24 24 24 25 24 24 24 24 25 25 26 27 28 30 31 33 34 36 38 40 43 45 46 47 48 48 48 48 47 45 45 45
51 54 55 54 54 54 54 54 52 51 50 48 48 46 43 40 37 35 34 34 36 36 33 29 28 27 27 26 26 25 25 26 26 27 27 26 26 25 26 26 26 27 28 29 30 31 32 33 34 36 38 40 42 44 46 47 48 50 50 50 49 48
52 53 53 52 54 55 56 57 56 55 54 52 52 52 51 50 46 43 41 41 40 39 37 35 34 34 32 31 29 28 27 28 28 29 29 29 28 28 28 27 27 27 28 28 29 30 32 33 34 35 36 37 39 40 41 43 46 48 50 51 52 51
Wind_Direction
284 284 286 288 287 286 285 284 285 286 287 287 288 289 288 286 285 286 288 290 292 292 291 292 296 299 299 301 304 307 308 308 307 306 303 301 303 306 309 311 312 315 317 315 314 311 304 298 292 290 286 278 268 258 256 263 268 276 277 271 269 268
283 285 287 285 283 283 283 285 286 286 286 287 290 289 285 284 284 286 289 290 291 289 290 295 299 301 300 303 307 309 309 306 303 300 298 299 303 308 313 315 316 318 317 314 314 310 303 297 292 290 285 276 267 258 252 257 263 268 273 275 272 268
282 284 285 283 281 281 282 284 285 285 287 287 287 285 283 285 286 287 288 288 287 285 288 292 293 296 297 299 301 303 305 303 298 297 296 299 304 312 318 319 320 321 318 314 313 310 302 297 293 289 285 276 268 261 252 254 260 261 265 271 271 267
282 283 283 282 282 282 284 285 285 284 284 283 282 282 283 284 284 285 286 285 284 282 285 286 286 286 285 287 291 296 301 297 295 294 295 298 304 314 321 322 321 320 315 311 312 311 303 295 292 290 289 285 277 267 255 253 259 260 261 266 269 268
281 282 282 283 282 282 284 283 281 280 279 280 281 282 282 282 283 284 285 284 283 284 285 284 282 279 278 284 288 291 292 290 292 294 296 299 305 314 321 321 318 314 308 307 311 313 307 297 293 293 293 292 284 272 258 253 259 263 264 266 270 270
280 281 281 281 280 281 282 279 277 278 279 282 284 283 282 284 285 287 287 285 284 284 284 284 279 275 276 281 283 282 282 284 289 294 299 302 307 314 318 316 312 305 300 305 310 315 315 310 305 301 297 292 285 274 263 256 259 263 266 271 274 271
280 280 280 278 277 277 278 279 279 279 283 286 285 283 284 287 287 287 287 286 285 281 280 281 278 277 276 274 274 274 276 279 284 291 299 304 308 313 314 311 309 301 297 300 305 313 319 321 322 317 307 295 285 275 269 262 261 263 267 273 277 273
280 280 279 275 273 273 275 279 281 281 286 284 280 280 284 287 284 284 285 284 285 280 277 278 278 279 276 269 265 267 272 275 281 288 296 302 305 309 308 304 306 304 300 300 300 306 316 322 323 321 316 304 289 277 275 270 263 264 270 276 278 274
278 276 274 269 270 273 275 279 279 279 280 277 274 276 279 280 278 281 281 279 281 280 278 279 279 278 276 269 261 263 271 275 280 285 292 298 302 306 303 295 299 300 298 299 294 296 306 313 315 314 313 307 298 286 283 281 271 266 272 275 274 271
275 273 271 270 271 274 275 277 276 273 270 267 268 268 269 273 276 278 278 276 279 282 281 279 278 277 276 271 263 264 269 274 278 280 286 294 299 303 297 288 293 294 294 295 290 290 295 300 303 302 302 302 298 290 285 286 282 276 275 273 270 266
275 273 272 274 275 275 275 272 270 270 267 263 263 264 266 271 274 274 276 281 284 283 281 276 273 274 274 271 266 266 268 272 275 276 280 290 297 300 292 283 286 289 290 291 287 285 288 291 292 290 290 285 279 276 276 277 279 278 276 274 270 267
276 274 275 277 277 276 274 268 265 267 265 263 263 266 267 268 270 271 275 282 283 279 275 270 267 266 264 264 266 267 270 271 272 275 282 290 295 296 291 282 279 281 285 287 285 283 285 287 286 287 283 272 266 267 269 269 270 269 267 269 272 271
274 275 277 277 276 276 274 268 263 260 261 263 263 265 267 266 270 273 275 278 277 275 270 266 262 259 256 261 269 272 276 277 278 284 289 291 291 291 288 279 272 274 279 284 285 283 284 283 282 289 282 266 260 256 257 261 261 261 265 271 276 275
273 274 276 276 276 276 274 271 263 256 257 260 258 261 264 266 270 274 273 273 273 274 270 265 261 256 253 260 272 278 282 285 287 290 291 289 287 285 280 271 266 267 272 280 282 283 285 280 273 277 280 267 256 249 253 262 261 260 265 268 270 271
274 274 275 276 276 276 274 271 263 255 253 256 258 262 266 267 269 268 267 269 270 271 269 265 261 259 257 260 269 275 280 285 289 289 287 284 281 277 270 263 260 261 266 276 282 284 282 274 267 270 278 270 260 260 263 267 263 260 261 262 266 269
275 275 275 275 275 275 274 270 264 258 257 260 264 267 268 267 265 263 262 265 267 267 266 264 263 265 266 268 272 274 278 283 285 284 281 279 276 270 262 256 254 255 259 271 281 279 271 264 257 258 264 264 265 269 268 261 258 259 259 259 262 265
275 277 276 274 274 274 274 271 266 261 259 262 265 267 267 263 260 260 260 262 263 264 264 267 270 273 276 278 279 280 282 282 282 280 276 274 268 261 256 252 252 253 251 260 271 266 265 264 249 251 258 264 267 268 266 259 257 260 261 260 259 260
275 275 275 275 275 274 272 270 266 261 258 258 263 266 262 257 254 254 256 258 259 262 267 272 276 279 283 286 287 288 287 284 281 278 273 267 261 255 252 251 252 254 251 252 258 257 255 250 240 247 251 257 263 262 265 265 262 263 265 265 263 263
275 274 275 276 276 274 272 269 265 261 255 253 260 262 252 247 247 250 252 256 260 266 273 278 282 286 291 293 294 293 291 287 282 276 269 261 254 249 247 249 251 254 252 248 250 247 239 237 238 243 248 257 261 257 260 263 263 265 267 269 269 269
276 275 275 275 275 274 272 269 264 259 254 253 258 254 244 243 247 253 257 261 268 275 281 286 290 294 297 297 296 295 292 288 281 273 265 254 245 243 243 246 249 251 249 246 245 239 235 238 240 242 253 260 257 253 258 263 266 266 265 266 270 272
277 275 276 276 274 272 269 266 261 257 253 251 252 248 244 247 253 261 267 272 278 283 289 293 296 298 298 297 295 293 290 286 279 270 260 248 238 239 241 241 242 242 242 241 241 238 239 242 241 244 254 259 256 254 259 264 266 266 266 268 271 274
278 277 277 276 274 272 267 263 259 256 251 247 247 248 250 254 259 268 276 281 285 291 296 298 298 298 296 294 292 291 287 283 278 267 255 243 233 235 241 239 237 236 237 240 241 242 246 249 244 242 249 257 260 259 261 262 262 264 267 269 269 270
284 281 278 275 273 270 266 262 260 256 252 247 246 250 254 258 264 273 279 284 288 293 296 296 296 295 293 292 289 287 283 280 276 266 254 240 231 232 238 238 236 236 237 240 243 244 250 255 251 247 248 253 258 260 263 263 262 263 264 264 264 265
286 282 278 275 272 267 265 263 259 255 252 249 248 250 254 259 266 273 278 283 287 291 292 293 294 293 292 290 287 283 280 276 272 265 255 243 234 232 235 237 237 236 238 241 246 250 254 257 255 251 249 249 253 259 262 262 261 261 262 264 266 267
283 279 276 274 269 264 261 254 249 253 253 252 251 251 253 258 264 271 277 282 285 288 290 292 292 292 291 288 285 280 276 271 265 261 256 247 239 235 236 238 237 236 238 242 248 254 256 256 253 249 247 247 252 257 259 261 263 264 264 263 263 266
274 275 273 270 265 259 255 243 238 248 252 252 252 252 253 258 266 274 280 284 286 288 289 289 289 288 288 285 282 277 272 267 261 256 253 249 244 238 237 239 240 239 240 242 247 251 253 253 252 250 248 249 252 255 258 262 266 267 265 260 258 264
265 270 272 272 266 258 253 241 235 243 248 248 251 253 255 264 274 281 284 285 286 287 285 284 284 283 283 281 277 273 269 264 258 253 250 248 246 241 238 240 242 244 244 244 247 250 252 252 253 253 251 251 254 258 261 264 266 264 262 260 258 260
256 261 269 273 269 262 257 244 234 240 246 248 252 257 263 272 279 282 283 283 284 283 282 281 281 280 280 278 275 270 267 263 258 252 248 246 245 243 241 241 242 244 246 247 247 250 253 253 253 256 257 257 259 262 264 265 264 262 260 260 255 252
252 258 265 266 264 262 256 241 232 237 244 249 255 262 268 275 280 281 281 282 282 282 280 279 278 277 277 276 274 270 266 262 259 255 250 247 244 243 242 242 243 244 246 247 248 250 253 254 254 256 259 262 265 267 268 267 266 263 261 260 255 251
252 258 261 257 256 256 247 234 229 238 248 254 259 263 269 274 277 278 279 280 281 279 277 276 276 275 275 274 273 271 267 263 259 256 253 250 247 245 244 244 244 244 244 246 247 248 250 253 255 257 259 262 265 267 268 268 267 265 262 259 256 256
254 255 255 252 251 252 245 233 228 238 251 259 263 266 271 272 272 274 277 281 281 276 273 275 275 275 275 274 272 270 268 264 260 257 255 253 251 249 247 246 246 246 246 246 247 249 250 252 255 258 260 262 264 265 264 264 264 263 261 259 257 257
253 253 251 250 251 253 250 240 233 237 247 256 264 270 272 271 270 272 277 284 284 277 275 276 277 276 276 274 273 271 269 267 263 260 257 256 254 252 251 250 250 250 250 250 251 252 253 254 256 259 261 263 264 263 261 260 260 259 259 259 256 255
251 251 249 248 250 251 250 245 240 241 244 252 262 268 269 271 273 274 278 285 286 282 281 281 280 277 276 274 273 272 270 269 266 263 261 259 258 257 255 254 254 254 254 254 255 256 256 257 258 259 260 261 262 262 260 258 256 254 256 257 256 255
250 249 249 249 249 250 249 246 245 246 248 255 263 266 266 269 274 276 277 280 281 283 285 286 285 282 279 276 274 272 270 268 266 263 261 261 261 261 260 259 259 259 258 259 259 259 259 260 260 260 259 260 260 260 258 255 252 251 253 256 258 258
251 249 250 251 251 252 251 249 249 250 253 256 259 263 266 269 270 272 275 275 277 282 286 287 287 286 283 281 278 276 273 270 267 264 261 261 261 262 264 264 263 263 263 263 263 263 264 264 265 264 262 261 260 259 258 256 254 252 252 254 257 259
256 251 250 251 250 250 248 248 250 253 256 256 256 260 265 268 268 268 271 274 277 281 282 282 284 284 284 285 282 279 276 274 272 268 264 263 263 264 265 267 268 267 266 265 265 266 267 267 268 268 266 264 262 261 259 258 257 256 256 256 257 258
261 255 252 250 248 247 246 248 250 253 256 256 256 258 260 264 266 267 271 275 277 279 278 278 281 280 281 284 284 281 278 276 275 272 269 266 267 268 268 269 270 271 271 271 270 270 270 270 269 268 267 265 265 264 262 261 260 259 259 258 258 258
Height
10792 10791 10793 10796 10792 10784 10780 10779 10781 10781 10779 10778 10777 10776 10775 10774 10772 10772 10770 10766 10763 10760 10756 10754 10754 10754 10754 10754 10754 10753 10751 10750 10749 10747 10746 10745 10745 10744 10744 10743 10742 10741 10739 10738 10737 10735 10733 10732 10732 10731 10731 10731 10733 10734 10735 10735 10735 10734 10733 10736 10736 10736
10786 10786 10789 10791 10784 10776 10775 10775 10777 10776 10774 10774 10772 10771 10769 10768 10768 10768 10766 10761 10759 10755 10751 10750 10750 10750 10750 10750 10750 10749 10748 10747 10746 10744 10743 10742 10742 10741 10740 10740 10739 10738 10736 10734 10733 10731 10729 10728 10728 10728 10728 10728 10729 10731 10732 10732 10731 10730 10731 10733 10734 10733
10779 10781 10785 10785 10778 10772 10772 10773 10773 10772 10770 10768 10767 10765 10762 10762 10763 10764 10760 10756 10755 10752 10748 10748 10749 10749 10748 10747 10747 10747 10747 10745 10744 10742 10740 10739 10738 10738 10737 10737 10737 10735 10733 10731 10729 10728 10726 10725 10725 10724 10725 10725 10726 10728 10729 10729 10727 10727 10729 10731 10732 10732
10774 10777 10780 10780 10774 10769 10770 10770 10769 10767 10766 10764 10761 10759 10757 10756 10757 10758 10755 10752 10751 10749 10747 10746 10748 10748 10746 10746 10745 10745 10744 10743 10741 10739 10736 10736 10736 10734 10734 10734 10733 10732 10731 10729 10727 10725 10724 10723 10722 10722 10722 10723 10724 10726 10727 10726 10724 10725 10727 10729 10730 10730
10772 10774 10775 10773 10771 10768 10767 10766 10765 10764 10763 10760 10756 10753 10751 10750 10750 10751 10750 10749 10749 10746 10745 10744 10744 10745 10744 10744 10744 10743 10741 10739 10738 10735 10732 10732 10732 10731 10732 10732 10730 10729 10729 10728 10725 10723 10722 10721 10721 10721 10721 10722 10722 10724 10725 10724 10722 10722 10725 10727 10727 10728
10770 10771 10769 10767 10767 10765 10764 10762 10762 10761 10759 10756 10751 10744 10743 10744 10744 10745 10746 10746 10747 10743 10741 10742 10741 10740 10740 10742 10741 10739 10737 10736 10734 10731 10728 10727 10728 10728 10729 10729 10728 10727 10727 10726 10724 10722 10720 10719 10719 10719 10720 10720 10721 10721 10722 10721 10720 10720 10722 10724 10725 10726
10766 10766 10762 10761 10761 10760 10759 10759 10759 10758 10756 10751 10745 10737 10735 10739 10740 10741 10742 10742 10742 10739 10737 10738 10738 10736 10736 10737 10737 10735 10734 10733 10731 10728 10725 10723 10723 10724 10725 10726 10726 10725 10724 10724 10723 10722 10720 10719 10718 10718 10718 10718 10719 10719 10719 10719 10717 10718 10720 10721 10722 10723
10760 10761 10758 10757 10756 10755 10755 10756 10757 10757 10753 10745 10737 10732 10732 10736 10737 10738 10738 10737 10736 10733 10732 10733 10734 10733 10732 10732 10732 10730 10730 10730 10728 10725 10722 10720 10721 10722 10723 10724 10724 10722 10721 10722 10722 10722 10720 10719 10717 10717 10717 10717 10717 10717 10717 10716 10715 10716 10716 10717 10719 10720
10754 10756 10755 10754 10753 10752 10751 10752 10754 10754 10748 10737 10732 10731 10731 10733 10734 10734 10734 10733 10731 10728 10727 10728 10729 10729 10728 10727 10727 10726 10727 10727 10726 10723 10719 10717 10718 10720 10721 10722 10722 10720 10719 10719 10720 10720 10719 10718 10717 10716 10716 10716 10716 10716 10715 10713 10713 10714 10713 10714 10715 10716
10746 10748 10747 10747 10748 10749 10749 10748 10748 10746 10740 10733 10729 10729 10729 10729 10730 10730 10728 10727 10726 10725 10724 10723 10724 10724 10724 10724 10724 10723 10723 10723 10723 10720 10717 10715 10715 10717 10719 10719 10719 10718 10717 10717 10718 10719 10718 10717 10716 10715 10715 10714 10714 10715 10714 10711 10710 10710 10710 10710 10711 10712
10738 10739 10739 10739 10740 10743 10745 10744 10742 10737 10732 10728 10727 10726 10726 10726 10726 10726 10723 10722 10721 10720 10720 10720 10719 10719 10720 10721 10720 10720 10718 10718 10718 10716 10714 10713 10713 10714 10716 10717 10717 10716 10716 10715 10714 10715 10716 10715 10714 10714 10714 10713 10713 10714 10713 10710 10707 10706 10705 10705 10707 10708
10732 10732 10733 10733 10733 10737 10740 10741 10738 10729 10723 10722 10723 10722 10723 10723 10722 10721 10719 10718 10717 10716 10716 10716 10716 10715 10715 10716 10715 10714 10712 10712 10712 10712 10711 10710 10710 10710 10713 10715 10715 10714 10713 10713 10712 10711 10713 10712 10711 10711 10711 10711 10711 10712 10711 10708 10704 10701 10701 10702 10705 10707
10728 10727 10727 10726 10728 10731 10735 10738 10736 10726 10719 10719 10719 10719 10720 10720 10718 10716 10714 10713 10713 10713 10713 10713 10713 10712 10712 10711 10709 10709 10708 10707 10708 10709 10708 10707 10707 10708 10710 10712 10712 10711 10710 10710 10709 10708 10709 10709 10708 10708 10709 10709 10709 10708 10707 10704 10700 10697 10698 10701 10703 10704
10725 10724 10722 10720 10721 10724 10728 10732 10732 10725 10719 10717 10717 10716 10716 10715 10713 10711 10709 10709 10708 10709 10709 10710 10710 10710 10710 10707 10704 10705 10705 10703 10703 10704 10703 10704 10704 10705 10707 10708 10708 10708 10707 10707 10706 10705 10705 10705 10705 10706 10706 10706 10705 10704 10704 10702 10698 10696 10697 10699 10699 10699
10720 10719 10718 10716 10714 10716 10720 10724 10725 10720 10716 10715 10713 10712 10711 10710 10708 10706 10705 10704 10704 10704 10705 10706 10707 10707 10707 10705 10703 10704 10702 10699 10698 10698 10699 10699 10700 10702 10704 10704 10705 10704 10704 10704 10704 10702 10701 10702 10701 10701 10702 10702 10701 10701 10703 10702 10696 10694 10695 10696 10697 10697
10713 10712 10712 10712 10709 10710 10712 10715 10716 10714 10711 10710 10710 10708 10706 10704 10701 10700 10700 10700 10700 10700 10700 10701 10701 10702 10703 10702 10701 10701 10700 10697 10696 10694 10693 10694 10695 10697 10699 10700 10700 10700 10701 10702 10702 10700 10699 10699 10697 10696 10696 10695 10695 10697 10700 10699 10694 10692 10693 10694 10695 10695
10708 10704 10704 10705 10706 10706 10707 10708 10708 10706 10705 10705 10705 10703 10701 10698 10696 10694 10694 10695 10695 10694 10694 10695 10696 10697 10698 10697 10696 10697 10696 10694 10692 10689 10688 10689 10690 10692 10694 10695 10696 10696 10698 10699 10699 10698 10697 10696 10694 10692 10691 10689 10690 10693 10696 10696 10694 10691 10691 10691 10693 10692
10703 10697 10694 10697 10699 10699 10701 10702 10701 10700 10700 10700 10699 10698 10697 10694 10692 10691 10690 10689 10689 10689 10689 10690 10691 10692 10693 10692 10691 10691 10689 10687 10685 10684 10684 10685 10687 10688 10690 10691 10691 10692 10694 10696 10696 10696 10695 10693 10690 10689 10687 10686 10688 10690 10692 10693 10692 10690 10689 10689 10689 10689
10696 10691 10689 10690 10691 10691 10692 10693 10693 10693 10694 10695 10694 10694 10693 10690 10689 10687 10686 10685 10684 10684 10685 10685 10686 10687 10687 10685 10684 10683 10682 10680 10679 10678 10679 10680 10683 10685 10686 10686 10687 10688 10689 10691 10693 10693 10692 10690 10688 10686 10683 10683 10685 10687 10688 10688 10688 10689 10688 10687 10686 10686
10688 10686 10685 10685 10685 10685 10684 10685 10685 10685 10686 10688 10689 10689 10688 10686 10685 10683 10683 10682 10681 10680 10680 10680 10680 10681 10680 10678 10678 10677 10676 10675 10674 10673 10674 10676 10679 10681 10682 10682 10683 10684 10685 10687 10688 10689 10688 10687 10685 10683 10680 10679 10681 10683 10683 10684 10684 10685 10686 10685 10684 10683
10681 10680 10680 10679 10679 10679 10679 10678 10678 10678 10679 10681 10682 10683 10683 10683 10682 10680 10679 10678 10677 10676 10674 10674 10674 10674 10674 10673 10672 10671 10670 10669 10669 10669 10670 10672 10675 10677 10678 10678 10679 10680 10681 10682 10684 10685 10685 10683 10682 10680 10677 10676 10677 10680 10680 10680 10681 10682 10682 10682 10681 10679
10677 10675 10674 10673 10672 10673 10673 10672 10672 10672 10672 10674 10675 10676 10677 10678 10677 10676 10674 10672 10671 10669 10668 10667 10668 10669 10669 10669 10668 10667 10666 10664 10664 10665 10666 10669 10671 10673 10674 10674 10675 10677 10677 10678 10679 10680 10681 10680 10679 10677 10675 10673 10673 10676 10677 10676 10676 10678 10679 10680 10678 10675
10672 10671 10669 10667 10667 10667 10667 10667 10667 10665 10665 10667 10669 10670 10671 10672 10672 10670 10668 10666 10665 10664 10663 10662 10663 10664 10664 10665 10665 10663 10663 10661 10660 10660 10662 10664 10667 10669 10670 10670 10671 10673 10674 10674 10674 10676 10676 10675 10675 10674 10673 10671 10670 10672 10674 10672 10672 10673 10675 10675 10674 10673
10666 10665 10664 10662 10662 10661 10663 10664 10661 10658 10659 10661 10663 10664 10666 10667 10666 10664 10663 10662 10661 10659 10658 10658 10658 10658 10659 10660 10661 10661 10660 10659 10658 10656 10656 10659 10662 10664 10666 10666 10667 10668 10669 10669 10670 10671 10671 10670 10670 10670 10670 10669 10667 10668 10669 10669 10668 10668 10670 10670 10670 10669
10659 10659 10659 10658 10657 10657 10659 10660 10655 10652 10654 10655 10657 10659 10661 10663 10662 10661 10659 10658 10657 10655 10653 10653 10652 10653 10654 10655 10656 10658 10658 10657 10656 10654 10653 10654 10656 10659 10661 10662 10663 10663 10664 10665 10665 10667 10667 10666 10666 10665 10666 10665 10664 10664 10664 10664 10664 10664 10665 10666 10666 10665
10652 10653 10654 10653 10652 10652 10653 10652 10649 10648 10649 10651 10652 10655 10657 10658 10658 10656 10655 10653 10651 10649 10648 10647 10646 10647 10649 10650 10651 10653 10654 10655 10654 10652 10651 10651 10652 10654 10656 10657 10657 10658 10658 10659 10661 10662 10663 10663 10662 10661 10661 10661 10661 10660 10660 10660 10660 10661 10661 10661 10662 10661
10647 10649 10650 10649 10647 10647 10647 10647 10645 10644 10645 10646 10648 10651 10653 10654 10653 10651 10649 10647 10646 10644 10642 10642 10641 10642 10644 10645 10647 10648 10649 10651 10651 10650 10649 10648 10649 10650 10651 10652 10652 10652 10653 10654 10656 10657 10658 10659 10658 10657 10656 10656 10656 10656 10657 10657 10657 10657 10657 10657 10658 10657
10644 10647 10649 10648 10645 10643 10644 10643 10642 10641 10641 10643 10645 10648 10649 10649 10648 10647 10645 10643 10642 10640 10639 10638 10638 10639 10640 10641 10643 10644 10645 10646 10647 10647 10646 10646 10646 10646 10647 10647 10648 10648 10648 10649 10651 10652 10653 10654 10653 10652 10652 10652 10652 10652 10653 10653 10654 10654 10653 10653 10653 10652
10646 10648 10649 10647 10644 10642 10641 10640 10638 10637 10638 10640 10643 10645 10645 10645 10644 10644 10642 10640 10639 10638 10637 10636 10636 10636 10637 10638 10640 10641 10642 10642 10643 10643 10643 10643 10643 10643 10643 10643 10644 10644 10644 10645 10647 10648 10649 10649 10648 10647 10647 10648 10647 10647 10648 10649 10649 10649 10649 10649 10649 10648
10649 10649 10648 10646 10643 10641 10639 10636 10633 10633 10636 10638 10640 10641 10640 10641 10641 10640 10638 10637 10636 10635 10634 10633 10633 10633 10634 10635 10636 10637 10639 10639 10640 10640 10640 10639 10639 10639 10640 10640 10640 10640 10641 10641 10642 10644 10645 10644 10644 10643 10643 10645 10644 10643 10644 10645 10644 10644 10645 10646 10646 10645
10646 10647 10645 10643 10642 10640 10638 10634 10630 10631 10634 10635 10636 10637 10636 10636 10636 10635 10634 10633 10632 10632 10631 10631 10630 10631 10631 10632 10633 10634 10635 10636 10637 10638 10637 10636 10636 10636 10636 10637 10637 10637 10637 10638 10638 10639 10640 10640 10640 10639 10639 10640 10639 10639 10640 10641 10640 10640 10641 10641 10641 10641
10641 10642 10641 10640 10639 10638 10637 10634 10631 10631 10632 10631 10632 10632 10631 10631 10631 10630 10629 10629 10629 10629 10629 10629 10629 10628 10629 10629 10631 10631 10632 10633 10634 10635 10634 10634 10633 10633 10634 10634 10634 10634 10635 10635 10635 10635 10636 10636 10636 10635 10635 10635 10635 10635 10636 10636 10636 10637 10638 10638 10638 10637
10636 10636 10637 10636 10635 10634 10633 10633 10631 10629 10628 10628 10629 10628 10627 10627 10627 10626 10626 10626 10627 10627 10627 10627 10627 10627 10627 10628 10628 10629 10630 10631 10631 10632 10631 10631 10631 10630 10631 10631 10631 10632 10632 10632 10632 10632 10632 10632 10632 10632 10632 10631 10630 10630 10630 10631 10632 10634 10635 10635 10634 10633
10632 10631 10632 10632 10631 10630 10629 10628 10628 10627 10626 10627 10627 10625 10624 10624 10624 10623 10623 10624 10625 10625 10625 10625 10625 10625 10625 10626 10627 10628 10628 10629 10629 10629 10629 10628 10628 10628 10628 10628 10629 10629 10629 10629 10629 10628 10628 10628 10628 10628 10627 10626 10626 10625 10625 10626 10627 10629 10630 10631 10630 10629
10627 10626 10627 10628 10627 10625 10624 10623 10623 10623 10624 10624 10624 10623 10622 10622 10621 10620 10621 10622 10622 10622 10622 10622 10623 10623 10624 10624 10625 10626 10626 10627 10627 10627 10627 10626 10626 10626 10625 10625 10626 10626 10626 10626 10625 10625 10624 10624 10624 10623 10622 10621 10621 10621 10621 10621 10623 10623 10624 10625 10625 10624
10621 10620 10621 10622 10622 10620 10618 10618 10618 10618 10619 10621 10621 10620 10619 10618 10617 10617 10618 10619 10618 10619 10619 10620 10621 10621 10622 10623 10623 10624 10624 10625 10625 10625 10625 10624 10624 10623 10623 10623 10623 10623 10623 10622 10622 10621 10620 10620 10619 10618 10618 10617 10617 10616 10616 10617 10617 10618 10618 10619 10619 10619
10614 10614 10615 10617 10615 10613 10613 10613 10613 10614 10615 10616 10616 10616 10616 10615 10613 10613 10614 10615 10615 10615 10616 10616 10617 10618 10619 10620 10620 10621 10622 10622 10622 10622 10622 10622 10621 10621 10620 10619 10619 10619 10619 10619 10618 10617 10616 10616 10615 10614 10614 10613 10612 10612 10612 10612 10612 10612 10612 10612 10613 10613